Location: Doschendorf
(50.0069°N, 11.0602°E)
Time: 15:54:36
(UTC+00:00)

PSLV R/B - Pass Details

Date: 17 November 2019
Orbit: 569 x 598 km, 98.1° (Epoch: 09 December)

Event Time Altitude Azimuth Distance (km) Brightness Sun altitude
Rises 16:33:16 0° 13° (NNE) 2,858 7.2 -10.2°
Reaches altitude 10° 16:35:27 10° 12° (NNE) 1,951 6.3 -10.5°
Maximum altitude 16:39:41 79° 287° (WNW) 617 4.1 -11.2°
Drops below altitude 10° 16:43:53 10° 201° (SSW) 1,931 7.1 -11.8°
Sets 16:46:02 0° 200° (SSW) 2,826 8.0 -12.2°
